Regional Weather Roundup
Issued by NWS Little Rock, AR

Home | Current Version | Previous Version | Graphics & Text | Print | Product List | Glossary On
Versions: 1 2 3 4 5 6 7 8 9 10 11 12 13 14 15 16 17 18 19 20 21 22 23 24 25 26 27 28 29 30 31 32 33 34 35 36 37 38 39 40 41 42 43 44 45 46 47 48 49 50
017
ASUS44 KLZK 061205
RWRLZK

WEATHER ROUNDUP FOR ARKANSAS
NATIONAL WEATHER SERVICE LITTLE ROCK AR
600 AM CST SAT FEB 06 2016

NOTE: "FAIR" INDICATES FEW OR NO CLOUDS BELOW 12,000 FEET WITH NO
SIGNIFICANT WEATHER AND/OR OBSTRUCTIONS TO VISIBILITY.

ARZ001-003-010-029-061300-
NORTHWEST ARKANSAS

CITY           SKY/WX    TMP DP  RH WIND       PRES   REMARKS
FAYETTEVILLE   PTCLDY    22  20  92 CALM      30.30S
6HR MIN TEMP:  22; 6HR MAX TEMP:  28;

FORT SMITH     PTCLDY    32  23  69 CALM      30.31F
6HR MIN TEMP:  31; 6HR MAX TEMP:  39;

HARRISON       PTCLDY    33  17  51 E3        30.30R
6HR MIN TEMP:  31; 6HR MAX TEMP:  42;

BENTONVILLE    PTCLDY    28  19  69 CALM      30.31R
ROGERS         PTCLDY    28  23  81 NE3       30.31R
6HR MIN TEMP:  27; 6HR MAX TEMP:  35;

SILOAM SPGS    CLEAR     36  16  44 CALM      30.30S
6HR MIN TEMP:  32; 6HR MAX TEMP:  39;

HIGHFILL       CLEAR     33  20  58 SW5       30.29R WCI  29
6HR MIN TEMP:  29; 6HR MAX TEMP:  36;

SPRINGDALE     PTCLDY    30  19  64 CALM      30.32
$$

ARZ004-005-016-061300-
NORTH CENTRAL ARKANSAS

CITY           SKY/WX    TMP DP  RH WIND       PRES   REMARKS
BATESVILLE     PTCLDY    32  21  64 SW3       30.35S
6HR MIN TEMP:  30; 6HR MAX TEMP:  43;

FLIPPIN        PTCLDY    28  19  69 CALM      30.30S
6HR MIN TEMP:  28; 6HR MAX TEMP:  32;

MTN HOME       CLEAR     32  16  51 CALM      30.31R
6HR MIN TEMP:  29; 6HR MAX TEMP:  38;

$$

ARZ040-041-061300-
WEST CENTRAL ARKANSAS

CITY           SKY/WX    TMP DP  RH WIND       PRES   REMARKS
MENA           CLEAR     28  25  86 CALM      30.31R
MOUNT IDA      MOCLDY    26  20  77 CALM      30.30R
6HR MIN TEMP:  25; 6HR MAX TEMP:  28;

$$

ARZ009-017-025-026-028-061300-
NORTHEAST ARKANSAS

CITY           SKY/WX    TMP DP  RH WIND       PRES   REMARKS
CORNING        FAIR      30  27  86 CALM      30.36R
JONESBORO      PTCLDY    29  25  85 CALM      30.36R
6HR MIN TEMP:  28; 6HR MAX TEMP:  34;

NEWPORT        PTCLDY    31  26  81 CALM      30.37R
6HR MIN TEMP:  30; 6HR MAX TEMP:  35;

WALNUT RIDGE   PTCLDY    30  21  69 CALM      30.36R
6HR MIN TEMP:  28; 6HR MAX TEMP:  34;

BLYTHEVILLE    PTCLDY    34  25  69 S5        30.37R WCI  30
6HR MIN TEMP:  34; 6HR MAX TEMP:  38;

$$

ARZ022-023-033-042-044-061300-
CENTRAL ARKANSAS

CITY           SKY/WX    TMP DP  RH WIND       PRES   REMARKS
LITTLE ROCK    MOCLDY    30  25  81 CALM      30.36R
6HR MIN TEMP:  29; 6HR MAX TEMP:  36;

JACKSONVILLE   PTCLDY    26  21  83 CALM      30.34S
6HR MIN TEMP:  26; 6HR MAX TEMP:  28;

SEARCY         PTCLDY    28  25  86 CALM      30.38R
6HR MIN TEMP:  27; 6HR MAX TEMP:  30;

HOT SPRINGS    CLOUDY    30  23  75 CALM      30.33F
6HR MIN TEMP:  28; 6HR MAX TEMP:  33;

RUSSELLVILLE   PTCLDY    25  22  88 CALM      30.33S
6HR MIN TEMP:  25; 6HR MAX TEMP:  33;

CLINTON        FAIR      23  19  86 CALM      30.37R
$$

ARZ036-061300-
EAST ARKANSAS

CITY           SKY/WX    TMP DP  RH WIND       PRES   REMARKS
WEST MEMPHIS   PTCLDY    34  31  88 CALM      30.36R
6HR MIN TEMP:  31; 6HR MAX TEMP:  35;

$$

ARZ050-053-066-070-073-061300-
SOUTHWEST ARKANSAS

CITY           SKY/WX    TMP DP  RH WIND       PRES   REMARKS
ARKADELPHIA    FAIR      31  27  85 CALM      30.35S
6HR MIN TEMP:  28; 6HR MAX TEMP:  33;

CAMDEN         MOCLDY    30  25  80 CALM      30.34S
TEXARKANA      PTCLDY    39  24  55 S5        30.30F
6HR MIN TEMP:  34; 6HR MAX TEMP:  41;

EL DORADO      MOCLDY    35  26  69 CALM      30.33S
6HR MIN TEMP:  31; 6HR MAX TEMP:  37;

DE QUEEN       MOCLDY    31  28  89 E5        30.30S WCI  26
6HR MIN TEMP:  28; 6HR MAX TEMP:  34;

$$

ARZ056-057-069-061300-
SOUTHEAST ARKANSAS

CITY           SKY/WX    TMP DP  RH WIND       PRES   REMARKS
PINE BLUFF     PTCLDY    32  27  81 CALM      30.36R
6HR MIN TEMP:  30; 6HR MAX TEMP:  37;

STUTTGART      CLOUDY    36  27  69 CALM      30.36R
6HR MIN TEMP:  36; 6HR MAX TEMP:  39;

MONTICELLO     PTCLDY    32  27  81 CALM      30.35R
6HR MIN TEMP:  31; 6HR MAX TEMP:  41;


$$






USA.gov is the U.S. government's official web portal to all federal, state and local government web resources and services.